Zurück zum Katalog

STARLINK-31437

AktivKommunikationVLEO
NORAD 60057·PAYLOAD·🇺🇸 United States

Gestartet Jun 8, 2024 von Vandenberg Space Force Base

Loading…

Nächste Überflüge (nächste 24 Stunden)

TLE

AktuellSource: CelesTrak SupGP

Epoche: Sep 15, 2026, 03:03 UTC

1 60057C 24112V   26258.12756944 -.00004156  00000+0 -12276-3 0  2585
2 60057  53.1564 276.5731 0001151  91.3510 197.0669 15.34397395    10

Verfolge STARLINK-31437 in Echtzeit mit AllMySat

Download on the App Store